Retour au catalogue

STARLINK-32077

ActifCommunicationsVLEO
NORAD 60344·PAYLOAD·🇺🇸 United States

Lancé Aug 2, 2024 depuis Cape Canaveral Space Force Station

Loading…

Prochains Passages (prochaines 24 heures)

TLE

FraisSource: CelesTrak SupGP

Époque: Sep 14, 2026, 13:51 UTC

1 60344C 24136R   26257.57756944  .00025041  00000+0  73997-3 0  2578
2 60344  53.1570 277.4377 0001397  68.9234  27.7721 15.34372002    13

Suivez STARLINK-32077 en temps réel avec AllMySat

Download on the App Store